weather.gov     
National Weather Service

Regional Weather Roundup
NWS Homepage
This page is being discontinued on March 12, 2014.
The same data is available at this site. Please update your bookmarks.
Thank you, and we apologize for the inconvenience.
Please send an email to SR-SRH.Webmaster@noaa.gov with any concerns.


Current Version
Previous Version:    01  02  03  04  05  06  07  08  09  10  11  12  13  14  15  16  17  18  19  20  21  22  23  24  25  26  27  
[Printable]
489
ASUS45 KGGW 272115
RWRGGW
HOURLY WEATHER ROUNDUP FOR NORTHEAST MONTANA
NATIONAL WEATHER SERVICE GLASGOW MONTANA
200 PM MST TUE JAN 27 2015

NOTE: "FAIR" INDICATES FEW OR NO CLOUDS BELOW 12,000 FEET WITH NO
SIGNIFICANT WEATHER AND/OR OBSTRUCTIONS TO VISISBILITY.

NORTHEAST MONTANA


CITY           SKY/WX    TMP DP  RH WIND       PRES   REMARKS
GLASGOW        PTSUNNY   51  35  54 CALM      29.80F
PLENTYWOOD       N/A     52  35  52 NW3         N/A
WOLF POINT     PTSUNNY   50  39  66 SW9       29.80F
JORDAN           N/A     56  36  47 W3        29.82
WINNETT          N/A     58  35  42 S1          N/A
SIDNEY         CLOUDY    52  37  58 S8        29.83F
GLENDIVE       MOSUNNY   52  36  54 SE3       29.84F
MALTA            N/A     52  35  52 NE1         N/A

FORT PECK REPORTS


CITY           SKY/WX    TMP DP  RH WIND       PRES   REMARKS
FORT PECK        N/A     47  35  63 S5          N/A
THE PINES        N/A     57  32  38 S2          N/A

SOUTHEAST MONTANA


CITY           SKY/WX    TMP DP  RH WIND       PRES   REMARKS
BILLINGS       PTSUNNY   66  30  26 SW13      29.88F
MILES CITY     MOSUNNY   58  35  42 S6        29.84F
BAKER          MOSUNNY   60  36  40 W9        29.85F
LIVINGSTON     MOSUNNY   63  25  23 SW28G36   29.92F

CENTRAL MONTANA


CITY           SKY/WX    TMP DP  RH WIND       PRES   REMARKS
HAVRE          PTSUNNY   59  34  39 SW15      29.79F
LEWISTOWN      PTSUNNY   58  31  35 W9        29.87F
GREAT FALLS    MOSUNNY   63  27  25 SW16      29.86F
CUT BANK         N/A    N/A N/A N/A MISG      29.83F
HELENA         MOSUNNY   45  33  63 E3        29.96F
BUTTE          PTSUNNY   46  29  51 NW6       29.99F
BOZEMAN        PTSUNNY   41  33  73 SE5       29.98F

WESTERN MONTANA


CITY           SKY/WX    TMP DP  RH WIND       PRES   REMARKS
MISSOULA       PTSUNNY   34  30  85 CALM      30.01F
KALISPELL      NOT AVBL

NORTH DAKOTA


CITY           SKY/WX    TMP DP  RH WIND       PRES   REMARKS
WILLISTON      PTSUNNY   51  35  54 SW5       29.79F
DICKINSON      MOSUNNY   59  38  45 W8        29.80F
MINOT          MOSUNNY   48  36  63 W6        29.77F
BISMARCK       MOSUNNY   51  32  48 SW5       29.83F

SOUTHERN SASKATCHEWAN


CITY           SKY/WX    TMP DP  RH WIND       PRES   REMARKS
REGINA         PTSUNNY   34  30  86 SW6       29.80
MOOSE JAW      PTSUNNY   36  32  87 NW7       29.80S
ESTEVAN        CLOUDY    41  37  87 SW7       29.77S
SWIFT CURRENT  PTSUNNY   41  36  81 W3        29.75F





U.S. Dept. of Commerce
NOAA National Weather Service
1325 East West Highway
Silver Spring, MD 20910
E-mail: w-nws.webmaster@noaa.gov
Page last modified: May 16, 2007
NATIONAL WEATHER SERVICE: for Safety, for Work, for Fun - FOR LIFE